THOR ABLESTAR DEB, 405

Orbit data source: Space-Track

THOR ABLESTAR DEB, 405 is space debris in LEO originally from a launch on Thu, 29 Jun 1961 UTC launched from the Air Force Eastern Test Range (AFETR). Debris objects in space refer to the collection of defunct objects orbiting the Earth. Examples of debris include non-operational satellites, rocket bodies, and fragments generated from explosions, collisions, or faulty payload assembly.

Loading next visibility...
Identifier
405, 1961-015EE
Orbit
LEO
Country
Flag of USUS
Related business
Manufacturer
Unknown
Mission
Spacecraft
Bus & Motor
Unknown
Mass
Unknown
Launch date (UTC)
1961-06-29 (65 years ago)
Launch vehicle
Unknown
Launch site
Air Force Eastern Test Range (AFETR)
Object type
Payload
Rocket body
Debris
Shape & HBR
Unknown shape, 0.3 m
Radar Cross Section
Small (<0.1 m²)

Expand to show TLE details & history
Last TLE update: 2 hours ago

TLE from 2 hours ago
0 THOR ABLESTAR DEB
1   405U 61015EE  26034.21511425  .00000180  00000-0  29384-3 0  9996
2   405  66.8927 115.5905 0091464 272.1696 118.0432 13.66659511213842
Epoch: 2026-02-03T05:09Z
TLE epoch observation values (Epoch: 2026-02-03T05:09:45.871Z)
Latitude
28.45237°
Longitude
-81.9515°
Altitude
1,046.514 km
Speed
7.315 km/s
True Right ascension
08h 35m 33s
True Declination
28° 18' 51"
Sunlit
Object was in full shadow at epoch
Visualization orbit readout
Latitude
Unknown
Longitude
Unknown
Altitude
Unknown
Speed
Unknown
Apparent Right ascension
Unknown
Apparent Declination
Unknown
Sunlit
N/A
Visualization observer readout
Local Sidereal Time
08:59:11
Azimuth
Unknown
Elevation
Unknown
Doppler factor
Unknown
Orbital elements
Apogee altitude
1,077.565 km
Perigee altitude
942.415 km
Semi-major axis
7,388.127 km
Eccentricity
0.00915
Inclination
66.8927°
RAAN
115.5905°
Arg. of periapsis
272.1696°
True anomaly
118.96326°
Mean anomaly
118.0432°
Eccentric anomaly
118.50373°
Mean motion
3.41776 °/min
Orbital period
105.33 mins
BSTAR
0.00029384

Documentation

Showing up to 5 results
|